Pella, IA

1:32 PM CST on February 19, 2017 (GMT -0600)
Pella Municipal

Weather History for KPEA - January, 2013

Change the Weather History Date:

Monday, January 21, 2013

  Actual Average (KOXV) Record (KOXV)
Temperature  
Mean Temperature 4 °F -  
Max Temperature 9 °F 33 °F 59 °F (1964)
Min Temperature 0 °F 16 °F -24 °F (1970)
Degree Days  
Heating Degree Days 60    
Moisture  
Dew Point -5 °F    
Average Humidity 64    
Maximum Humidity 74    
Minimum Humidity 53    
Precipitation  
Precipitation 0.00 in - - ()
Sea Level Pressure  
Sea Level Pressure 30.37 in    
Wind  
Wind Speed 13 mph (WNW)    
Max Wind Speed 22 mph    
Max Gust Speed 29 mph    
Visibility 10 miles    
Events      
Averages and records for this station are not official NWS values.
T = Trace of Precipitation, MM = Missing Value Source: NWS Daily Summary

Daily Weather History Graph

Daily Weather History Graph

Search for Another Location

Airport or City:

Trip Planner

Search our weather history database for the weather conditions in past years. The results will help you decide how hot, cold, wet, or windy it might be!

Date:

Astronomy

Jan. 21, 2013 Rise Set
Actual Time 7:32 AM CST 5:14 PM CST
Civil Twilight 7:02 AM CST 5:44 PM CST
Nautical Twilight 6:28 AM CST 6:18 PM CST
Astronomical Twilight 5:55 AM CST 6:51 PM CST
Moon 12:54 PM CST (1/21) 3:01 AM CST (1/21)
Length of Visible Light 10h 42m
Length of Day
9h 42m
Waxing Gibbous, 75% of the Moon is Illuminated
Jan 21
Waxing Gibbous
Jan 26
Full
Feb 3
Last Quarter
Feb 10
New
Feb 17
First Quarter

Hourly Weather History & Observations

Time (CST) Temp. Windchill Dew Point Humidity Pressure Visibility Wind Dir Wind Speed Gust Speed Precip Events Conditions
12:15 AM 9.1 °F -6.4 °F 2.3 °F 74% 30.34 in 10.0 mi West 12.7 mph - N/A   Clear
12:35 AM 9.1 °F -6.4 °F 2.3 °F 74% 30.34 in 10.0 mi West 12.7 mph 17.3 mph N/A   Clear
12:55 AM 8.8 °F -6.8 °F 1.6 °F 73% 30.34 in 10.0 mi WNW 12.7 mph 20.7 mph N/A   Clear
1:15 AM 7.7 °F -8.9 °F 0.5 °F 72% 30.34 in 10.0 mi West 13.8 mph - N/A   Clear
1:35 AM 7.9 °F -8.6 °F -0.2 °F 70% 30.34 in 10.0 mi WNW 13.8 mph 18.4 mph N/A   Clear
1:55 AM 7.3 °F -10.0 °F -0.8 °F 69% 30.34 in 10.0 mi WNW 15.0 mph 18.4 mph N/A   Clear
2:15 AM 6.8 °F -10.0 °F -1.3 °F 69% 30.34 in 10.0 mi WNW 13.8 mph - N/A   Scattered Clouds
2:35 AM 6.4 °F -7.3 °F -1.7 °F 69% 30.34 in 10.0 mi NW 9.2 mph - N/A   Scattered Clouds
2:55 AM 5.7 °F -9.9 °F -2.2 °F 70% 30.34 in 10.0 mi WNW 11.5 mph 16.1 mph N/A   Clear
3:15 AM 5.9 °F -9.7 °F -2.2 °F 69% 30.34 in 10.0 mi WNW 11.5 mph 16.1 mph N/A   Clear
3:35 AM 5.7 °F -14.3 °F -2.2 °F 70% 30.34 in 10.0 mi WNW 19.6 mph - N/A   Clear
3:55 AM 5.7 °F -12.6 °F -2.2 °F 70% 30.34 in 10.0 mi WNW 16.1 mph 23.0 mph N/A   Clear
4:15 AM 5.5 °F -14.0 °F -2.2 °F 70% 30.34 in 10.0 mi WNW 18.4 mph 25.3 mph N/A   Clear
4:35 AM 5.4 °F -14.8 °F -3.1 °F 68% 30.33 in 10.0 mi WNW 19.6 mph 25.3 mph N/A   Scattered Clouds
4:55 AM 5.0 °F -13.6 °F -3.6 °F 68% 30.34 in 10.0 mi WNW 16.1 mph 25.3 mph N/A   Scattered Clouds
5:15 AM 4.8 °F -16.4 °F -4.0 °F 67% 30.34 in 10.0 mi WNW 21.9 mph 27.6 mph N/A   Clear
5:35 AM 4.5 °F -15.4 °F -4.0 °F 68% 30.35 in 10.0 mi WNW 18.4 mph 24.2 mph N/A   Scattered Clouds
5:55 AM 4.5 °F -15.9 °F -4.9 °F 65% 30.35 in 10.0 mi NW 19.6 mph 26.5 mph N/A   Scattered Clouds
6:15 AM 3.6 °F -17.1 °F -6.7 °F 62% 30.36 in 10.0 mi NW 19.6 mph 28.8 mph N/A   Scattered Clouds
6:35 AM 2.5 °F -16.8 °F -8.1 °F 61% 30.36 in 10.0 mi NW 16.1 mph 21.9 mph N/A   Clear
6:55 AM 1.9 °F -18.1 °F -7.8 °F 64% 30.37 in 10.0 mi NW 17.3 mph 21.9 mph N/A   Clear
7:15 AM 1.4 °F -18.2 °F -7.4 °F 67% 30.37 in 10.0 mi NW 16.1 mph 20.7 mph N/A   Clear
7:35 AM 1.2 °F -19.1 °F -5.4 °F 74% 30.38 in 5.0 mi NW 17.3 mph 23.0 mph N/A   Haze
7:55 AM 0.3 °F -19.0 °F -9.6 °F 63% 30.39 in 10.0 mi WNW 15.0 mph 25.3 mph N/A   Scattered Clouds
8:15 AM -0.4 °F -19.2 °F -11.9 °F 58% 30.39 in 10.0 mi WNW 13.8 mph 26.5 mph N/A   Clear
8:35 AM -0.4 °F -21.2 °F -11.6 °F 59% 30.40 in 10.0 mi NW 17.3 mph 24.2 mph N/A   Clear
8:55 AM -0.4 °F -20.5 °F -11.9 °F 58% 30.41 in 10.0 mi WNW 16.1 mph 26.5 mph N/A   Clear
9:15 AM -0.0 °F -21.8 °F -11.9 °F 57% 30.41 in 10.0 mi NW 19.6 mph 26.5 mph N/A   Clear
9:35 AM 0.5 °F -21.1 °F -11.7 °F 56% 30.42 in 10.0 mi NW 19.6 mph 25.3 mph N/A   Clear
9:55 AM 0.7 °F -19.1 °F -9.6 °F 62% 30.42 in 10.0 mi NW 16.1 mph 26.5 mph N/A   Clear
10:15 AM 1.2 °F -17.8 °F -9.9 °F 60% 30.43 in 10.0 mi WNW 15.0 mph 23.0 mph N/A   Scattered Clouds
10:35 AM 1.8 °F -18.4 °F -9.2 °F 60% 30.43 in 10.0 mi NW 17.3 mph 21.9 mph N/A   Clear
10:55 AM 2.1 °F -15.2 °F -9.4 °F 59% 30.43 in 10.0 mi NW 12.7 mph 19.6 mph N/A   Clear
11:15 AM 2.1 °F -17.3 °F -9.2 °F 59% 30.43 in 10.0 mi NW 16.1 mph 20.7 mph N/A   Clear
11:35 AM 2.7 °F -12.0 °F -8.9 °F 59% 30.42 in 10.0 mi WNW 9.2 mph 19.6 mph N/A   Clear
11:55 AM 3.0 °F -13.3 °F -8.3 °F 59% 30.41 in 10.0 mi NW 11.5 mph 19.6 mph N/A   Clear
12:15 PM 3.4 °F -15.0 °F -8.3 °F 58% 30.40 in 10.0 mi WNW 15.0 mph 18.4 mph N/A   Clear
12:35 PM 4.1 °F -14.1 °F -7.4 °F 59% 30.39 in 10.0 mi WNW 15.0 mph - N/A   Clear
12:55 PM 4.8 °F -11.8 °F -6.9 °F 59% 30.39 in 10.0 mi NW 12.7 mph 19.6 mph N/A   Clear
1:15 PM 5.9 °F -10.5 °F -6.2 °F 58% 30.38 in 10.0 mi WNW 12.7 mph 18.4 mph N/A   Clear
1:35 PM 6.6 °F -10.2 °F -6.0 °F 56% 30.37 in 10.0 mi NW 13.8 mph 19.6 mph N/A   Clear
1:55 PM 7.3 °F -9.3 °F -5.4 °F 56% 30.37 in 10.0 mi West 13.8 mph 18.4 mph N/A   Clear
2:15 PM 8.6 °F -7.0 °F -5.3 °F 53% 30.36 in 10.0 mi WNW 12.7 mph - N/A   Clear
2:35 PM 9.5 °F -7.8 °F -3.3 °F 56% 30.36 in 10.0 mi West 16.1 mph - N/A   Clear
2:55 PM 8.6 °F -7.7 °F -4.0 °F 57% 30.36 in 10.0 mi West 13.8 mph 19.6 mph N/A   Clear
3:15 PM 8.8 °F -7.5 °F -4.0 °F 56% 30.36 in 10.0 mi WNW 13.8 mph - N/A   Clear
3:35 PM 8.6 °F -6.3 °F -4.7 °F 55% 30.36 in 10.0 mi WNW 11.5 mph - N/A   Clear
3:55 PM 9.0 °F -5.1 °F -4.2 °F 55% 30.36 in 10.0 mi WNW 10.4 mph - N/A   Clear
4:15 PM 8.1 °F -6.2 °F -4.4 °F 57% 30.36 in 10.0 mi WNW 10.4 mph - N/A   Clear
4:35 PM 7.3 °F -6.2 °F -4.0 °F 60% 30.36 in 10.0 mi NW 9.2 mph - N/A   Clear
4:55 PM 6.8 °F -5.9 °F -3.8 °F 62% 30.36 in 10.0 mi WNW 8.1 mph - N/A   Clear
5:15 PM 5.9 °F -3.0 °F -4.0 °F 64% 30.36 in 10.0 mi NW 4.6 mph - N/A   Clear
5:35 PM 5.0 °F -4.1 °F -4.4 °F 65% 30.36 in 10.0 mi NW 4.6 mph - N/A   Clear
5:55 PM 4.6 °F -6.0 °F -4.4 °F 66% 30.36 in 10.0 mi WNW 5.8 mph - N/A   Clear
6:15 PM 4.1 °F -6.7 °F -4.4 °F 68% 30.36 in 10.0 mi WNW 5.8 mph - N/A   Clear
6:55 PM 4.1 °F -6.7 °F -4.5 °F 67% 30.36 in 10.0 mi WNW 5.8 mph - N/A   Clear
7:15 PM 3.9 °F -8.2 °F -4.7 °F 67% 30.36 in 10.0 mi WNW 6.9 mph - N/A   Clear
7:35 PM 3.6 °F -8.7 °F -4.9 °F 68% 30.37 in 10.0 mi West 6.9 mph - N/A   Clear
7:55 PM 3.9 °F -9.4 °F -4.5 °F 68% 30.37 in 10.0 mi West 8.1 mph - N/A   Clear
8:15 PM 4.3 °F -7.8 °F -4.5 °F 67% 30.37 in 10.0 mi WNW 6.9 mph - N/A   Clear
8:35 PM 4.8 °F -8.3 °F -4.4 °F 66% 30.37 in 10.0 mi WNW 8.1 mph - N/A   Clear
8:55 PM 5.0 °F -9.1 °F -4.4 °F 65% 30.37 in 10.0 mi WNW 9.2 mph - N/A   Clear
9:15 PM 4.1 °F -9.2 °F -4.5 °F 67% 30.37 in 10.0 mi WNW 8.1 mph - N/A   Clear
9:35 PM 4.1 °F -9.2 °F -4.9 °F 66% 30.38 in 10.0 mi WNW 8.1 mph - N/A   Clear
9:55 PM 3.2 °F -9.1 °F -5.1 °F 68% 30.38 in 10.0 mi WNW 6.9 mph - N/A   Clear
10:15 PM 3.0 °F -9.3 °F -5.3 °F 68% 30.38 in 10.0 mi WNW 6.9 mph - N/A   Clear
10:35 PM 3.0 °F -10.5 °F -5.8 °F 67% 30.38 in 10.0 mi WNW 8.1 mph - N/A   Clear
10:55 PM 3.2 °F -10.3 °F -6.2 °F 65% 30.38 in 10.0 mi WNW 8.1 mph - N/A   Clear
11:15 PM 2.7 °F -10.9 °F -6.5 °F 66% 30.38 in 10.0 mi WNW 8.1 mph - N/A   Clear
11:35 PM 2.3 °F -10.2 °F -6.3 °F 67% 30.38 in 10.0 mi WNW 6.9 mph - N/A   Clear
11:55 PM 2.3 °F -8.8 °F -6.3 °F 67% 30.38 in 10.0 mi NW 5.8 mph - N/A   Clear